Weather History for KSMF - March, 2013

Change the Weather History Date:

Thursday, March 21, 2013

  Actual Average Record
Temperature  
Mean Temperature 54 °F -  
Max Temperature 66 °F 66 °F 80 °F (1960)
Min Temperature 41 °F 44 °F 34 °F (1955)
Degree Days  
Heating Degree Days 12    
Growing Degree Days 4 (Base 50)    
Moisture  
Dew Point 41 °F    
Average Humidity 74    
Maximum Humidity 100    
Minimum Humidity 26    
Precipitation  
Precipitation 0.01 in - - ()
Sea Level Pressure  
Sea Level Pressure 30.07 in    
Wind  
Wind Speed 8 mph (NW)    
Max Wind Speed 18 mph    
Max Gust Speed 25 mph    
Visibility 7 miles    
Events Fog    
Averages and records for this station are not official NWS values.
T = Trace of Precipitation, MM = Missing Value Source: NWS Daily Summary

Daily Weather History Graph

Daily Weather History Graph

Search for Another Location

Airport or City:

Trip Planner

Search our weather history database for the weather conditions in past years. The results will help you decide how hot, cold, wet, or windy it might be!

Date:

Astronomy

Mar. 21, 2013 Rise Set
Actual Time 7:07 AM PDT 7:19 PM PDT
Civil Twilight 6:41 AM PDT 7:46 PM PDT
Nautical Twilight 6:10 AM PDT 8:17 PM PDT
Astronomical Twilight 5:38 AM PDT 8:48 PM PDT
Moon 1:57 PM PDT (3/21) 3:29 AM PDT (3/21)
Length of Visible Light 13h 04m
Length of Day
12h 11m
Waxing Gibbous, 69% of the Moon is Illuminated
Mar 21
Waxing Gibbous
Mar 27
Full
Apr 2
Last Quarter
Apr 10
New
Apr 18
First Quarter

Hourly Weather History & Observations

Time (PDT) Temp. Windchill Dew Point Humidity Pressure Visibility Wind Dir Wind Speed Gust Speed Precip Events Conditions
12:53 AM 48.9 °F - 46.9 °F 93% 30.08 in 10.0 mi ESE 4.6 mph - N/A   Clear
1:53 AM 48.9 °F - 46.9 °F 93% 30.08 in 10.0 mi SE 8.1 mph - N/A   Clear
2:53 AM 46.0 °F 43.1 °F 45.0 °F 96% 30.09 in 10.0 mi SE 5.8 mph - N/A   Clear
3:53 AM 48.0 °F - 46.9 °F 96% 30.09 in 10.0 mi South 4.6 mph - 0.01 in   Clear
4:50 AM 42.8 °F 41.1 °F 42.8 °F 100% 30.09 in 1.8 mi SW 3.5 mph - N/A   Clear
4:53 AM 42.1 °F 39.2 °F 42.1 °F 100% 30.09 in 4.0 mi WSW 4.6 mph - N/A   Clear
5:53 AM 44.1 °F 40.8 °F 42.1 °F 93% 30.08 in 10.0 mi WNW 5.8 mph - N/A   Clear
6:18 AM 41.0 °F 35.8 °F 39.2 °F 93% 30.10 in 5.0 mi North 8.1 mph - N/A   Mostly Cloudy
6:20 AM 41.0 °F 36.4 °F 41.0 °F 100% 30.10 in 1.0 mi North 6.9 mph - N/A   Mostly Cloudy
6:33 AM 44.6 °F 40.7 °F 44.6 °F 100% 30.10 in 0.5 mi NNW 6.9 mph - N/A Fog Fog
6:37 AM 44.6 °F 42.2 °F 44.6 °F 100% 30.10 in 0.2 mi NW 4.6 mph - N/A Fog Fog
6:53 AM 45.0 °F 41.2 °F 44.1 °F 97% 30.10 in 0.2 mi NW 6.9 mph - N/A Fog Fog
7:49 AM 46.4 °F 42.4 °F 46.4 °F 100% 30.10 in 0.2 mi North 8.1 mph - N/A Fog Fog
7:53 AM 46.0 °F 41.4 °F 46.0 °F 100% 30.11 in 0.5 mi North 9.2 mph - N/A Fog Fog
8:23 AM 46.4 °F 42.9 °F 46.4 °F 100% 30.12 in 0.5 mi NNW 6.9 mph - N/A Fog Fog
8:26 AM 46.4 °F 42.4 °F 46.4 °F 100% 30.12 in 6.0 mi NNW 8.1 mph - N/A   Partly Cloudy
8:53 AM 46.9 °F - 45.0 °F 93% 30.12 in 10.0 mi NNW 10.4 mph - N/A   Clear
9:53 AM 51.1 °F - 44.1 °F 77% 30.12 in 10.0 mi NNW 12.7 mph - N/A   Partly Cloudy
10:53 AM 55.0 °F - 45.0 °F 69% 30.11 in 10.0 mi NNW 12.7 mph - N/A   Clear
11:53 AM 57.9 °F - 45.0 °F 62% 30.10 in 10.0 mi NW 11.5 mph - N/A   Clear
12:53 PM 61.0 °F - 44.1 °F 54% 30.09 in 10.0 mi NNW 16.1 mph - N/A   Clear
1:53 PM 64.0 °F - 43.0 °F 46% 30.07 in 10.0 mi NNW 16.1 mph - N/A   Clear
2:53 PM 64.9 °F - 42.1 °F 43% 30.04 in 10.0 mi NW 13.8 mph - N/A   Clear
3:53 PM 66.0 °F - 35.1 °F 32% 30.02 in 10.0 mi NW 13.8 mph - N/A   Clear
4:53 PM 66.0 °F - 30.0 °F 26% 30.01 in 10.0 mi NNW 13.8 mph 25.3 mph N/A   Clear
5:53 PM 64.9 °F - 30.9 °F 28% 30.00 in 10.0 mi NNW 15.0 mph - N/A   Clear
6:53 PM 61.0 °F - 33.1 °F 35% 29.99 in 10.0 mi NNW 10.4 mph - N/A   Clear
7:53 PM 55.0 °F - 34.0 °F 45% 30.00 in 10.0 mi NNW 9.2 mph - N/A   Clear
8:53 PM 53.1 °F - 30.0 °F 41% 30.01 in 10.0 mi NW 8.1 mph - N/A   Clear
9:53 PM 52.0 °F - 32.0 °F 47% 30.01 in 10.0 mi WNW 9.2 mph - N/A   Clear
10:53 PM 50.0 °F - 34.0 °F 54% 30.02 in 10.0 mi WNW 10.4 mph - N/A   Clear
11:53 PM 52.0 °F - 28.9 °F 41% 30.02 in 10.0 mi NNW 18.4 mph 24.2 mph N/A   Clear